Key West, FL

2:27 PM EDT on April 22, 2018 (GMT -0400)
Key West International

Weather History for KEYW - February, 2013

Change the Weather History Date:

Saturday, February 23, 2013

  Actual Average Record
Temperature  
Mean Temperature 79 °F 72 °F  
Max Temperature 81 °F 77 °F 84 °F (1990)
Min Temperature 76 °F 67 °F 48 °F (1978)
Degree Days  
Heating Degree Days 0 0  
Month to date heating degree days 7 19  
Since 1 July heating degree days 12 70  
Cooling Degree Days 14 7  
Month to date cooling degree days 186 148  
Year to date cooling degree days 477 313  
Growing Degree Days 28 (Base 50)    
Moisture  
Dew Point 72 °F    
Average Humidity 84    
Maximum Humidity 94    
Minimum Humidity 74    
Precipitation  
Precipitation 0.00 in 0.06 in 1.71 in (1932)
Month to date precipitation 0.81 1.18  
Year to date precipitation 1.10 3.22  
Snow  
Snow 0.00 in - - ()
Month to date snowfall 0.0  
Since 1 July snowfall 0.0  
Snow Depth 0.00 in    
Sea Level Pressure  
Sea Level Pressure 29.99 in    
Wind  
Wind Speed 8 mph (SE)    
Max Wind Speed 14 mph    
Max Gust Speed 18 mph    
Visibility 10 miles    
Events      
T = Trace of Precipitation, MM = Missing Value Source: NWS Daily Summary

Daily Weather History Graph

Daily Weather History Graph

Search for Another Location

Airport or City:

Astronomy

Feb. 23, 2013 Rise Set
Actual Time 6:54 AM EST 6:26 PM EST
Civil Twilight 6:31 AM EST 6:49 PM EST
Nautical Twilight 6:04 AM EST 7:16 PM EST
Astronomical Twilight 5:38 AM EST 7:42 PM EST
Moon 4:41 PM EST (2/23) 5:07 AM EST (2/23)
Length of Visible Light 12h 18m
Length of Day
11h 32m
Waxing Gibbous, 95% of the Moon is Illuminated
Feb 23
Waxing Gibbous
Feb 25
Full
Mar 4
Last Quarter
Mar 11
New
Mar 19
First Quarter

Hourly Weather History & Observations

Time (EST) Temp. Heat Index Dew Point Humidity Pressure Visibility Wind Dir Wind Speed Gust Speed Precip Events Conditions
12:53 AM 75.9 °F - 71.1 °F 85% 30.03 in 10.0 mi SE 10.4 mph - N/A   Scattered Clouds
1:53 AM 75.9 °F - 71.1 °F 85% 30.01 in 10.0 mi SE 10.4 mph - N/A   Clear
2:53 AM 75.9 °F - 71.1 °F 85% 29.99 in 10.0 mi SE 10.4 mph - N/A   Mostly Cloudy
3:53 AM 75.9 °F - 71.1 °F 85% 29.98 in 10.0 mi SE 9.2 mph - N/A   Mostly Cloudy
4:53 AM 75.9 °F - 71.1 °F 85% 29.97 in 10.0 mi SE 9.2 mph - N/A   Mostly Cloudy
5:41 AM 75.2 °F - 71.6 °F 89% 29.98 in 10.0 mi SE 8.1 mph - N/A   Mostly Cloudy
5:53 AM 75.9 °F - 72.0 °F 87% 29.98 in 10.0 mi SE 9.2 mph - N/A   Mostly Cloudy
6:34 AM 75.2 °F - 71.6 °F 89% 29.98 in 10.0 mi SE 10.4 mph - N/A   Scattered Clouds
6:53 AM 75.9 °F - 72.0 °F 87% 29.98 in 10.0 mi SE 10.4 mph - N/A   Partly Cloudy
7:53 AM 77.0 °F - 72.0 °F 84% 29.99 in 9.0 mi SE 10.4 mph - N/A   Clear
8:53 AM 78.1 °F - 72.0 °F 81% 30.01 in 9.0 mi SSE 11.5 mph - N/A   Scattered Clouds
9:53 AM 79.0 °F - 72.0 °F 79% 30.02 in 10.0 mi SSE 10.4 mph - N/A   Clear
10:53 AM 80.1 °F 84.2 °F 73.0 °F 79% 30.03 in 10.0 mi SSE 9.2 mph - N/A   Mostly Cloudy
11:00 AM 80.6 °F 84.6 °F 71.6 °F 74% 30.02 in 10.0 mi SSE 11.5 mph - N/A   Scattered Clouds
11:09 AM 80.6 °F 85.4 °F 73.4 °F 79% 30.02 in 10.0 mi SSE 10.4 mph - N/A   Mostly Cloudy
11:40 AM 80.6 °F 85.4 °F 73.4 °F 79% 30.02 in 10.0 mi South 8.1 mph - N/A   Scattered Clouds
11:53 AM 80.1 °F 84.2 °F 73.0 °F 79% 30.01 in 10.0 mi South 10.4 mph - N/A   Partly Cloudy
12:53 PM 80.1 °F 84.2 °F 73.0 °F 79% 30.00 in 8.0 mi South 8.1 mph - N/A   Clear
1:53 PM 80.1 °F 83.8 °F 72.0 °F 76% 29.98 in 10.0 mi South 9.2 mph - N/A   Clear
2:53 PM 81.0 °F 85.8 °F 73.0 °F 77% 29.96 in 10.0 mi SSE 9.2 mph - N/A   Clear
3:53 PM 80.1 °F 83.8 °F 72.0 °F 76% 29.95 in 9.0 mi SSE 6.9 mph - N/A   Clear
4:53 PM 79.0 °F - 72.0 °F 79% 29.94 in 9.0 mi ESE 3.5 mph - N/A   Clear
5:53 PM 79.0 °F - 71.1 °F 77% 29.95 in 9.0 mi ESE 3.5 mph - N/A   Partly Cloudy
6:53 PM 77.0 °F - 71.1 °F 82% 29.95 in 10.0 mi ESE 4.6 mph - N/A   Clear
7:53 PM 77.0 °F - 71.1 °F 82% 29.97 in 10.0 mi East 5.8 mph - N/A   Clear
8:53 PM 75.9 °F - 72.0 °F 87% 29.99 in 9.0 mi East 4.6 mph - N/A   Clear
9:53 PM 75.9 °F - 73.0 °F 91% 30.00 in 9.0 mi SE 4.6 mph - N/A   Clear
10:53 PM 75.9 °F - 73.0 °F 91% 29.99 in 8.0 mi ESE 3.5 mph - N/A   Clear
11:53 PM 75.9 °F - 73.0 °F 91% 30.00 in 9.0 mi Calm Calm - N/A   Clear